Location: Anvin
(50.4464°N, 2.2539°E)
Time: 00:15:50
(UTC+00:00)

Daily predictions for brighter satellites

Satellite Brightness Start Highest point End
(mag) Time Altitude Azimuth Time Altitude Azimuth Time Altitude Azimuth
CENTAUR R/B 4.5 02:05:13 27° NNE 02:05:13 27° NNE 02:09:44 10° NE
ACS3 Solar Sail 4.0 02:00:51 10° NE 02:03:45 19° ENE 02:03:45 19° ENE
ADEOS Rocket 4.2 02:33:21 10° NNE 02:38:46 42° E 02:38:46 42° E
Cosmos 2219 Rocket 3.8 02:55:06 30° E 02:55:06 30° E 02:58:53 10° NE
CZ-2D R/B 4.5 03:13:40 10° N 03:14:23 14° N 03:14:23 14° N
USA 267 3.5 03:14:04 10° ENE 03:20:18 62° SE 03:20:18 62° SE
Cosmos 1980 Rocket 4.4 03:27:56 15° N 03:27:56 15° N 03:29:26 10° NNE
H-2A R/B 3.9 03:26:25 10° NNE 03:28:05 21° NNE 03:28:05 21° NNE
USA 238 DEB 4.1 03:33:04 49° N 03:33:04 49° N 03:38:47 10° NE
USA 238 4.1 03:33:10 50° N 03:33:10 50° N 03:38:53 10° NE
Cosmos 2278 Rocket 3.7 03:29:48 24° N 03:32:07 33° NE 03:37:10 10° ESE
Cosmos 2333 Rocket 3.2 03:39:30 39° N 03:39:30 39° N 03:43:10 10° NNE
ADEOS II 4.1 03:38:40 10° N 03:39:55 17° N 03:39:55 17° N
COSMOS 2455 3.1 03:45:06 59° N 03:45:06 59° N 03:50:07 10° NE
Lacrosse 5 rocket 3.9 03:46:58 14° NE 03:46:58 14° NE 03:47:33 10° NE
Cosmos 2298 Rocket 4.4 03:46:57 63° NE 03:46:57 63° NE 03:51:32 10° NNE
ACS3 Solar Sail 1.9 03:42:56 10° N 03:47:53 61° N 03:47:53 61° N
BlueWalker 3 4.3 03:53:51 19° ESE 03:53:51 19° ESE 03:54:56 10° ESE
Resurs 1-4 Rocket 4.4 03:47:34 10° N 03:48:13 13° N 03:48:13 13° N
CENTAUR R/B 4.1 03:52:18 25° NNW 03:55:25 33° NNE 04:03:06 10° ENE
Cosmos 2360 Rocket 2.7 03:59:09 48° N 03:59:09 48° N 04:03:31 10° NNE
Cosmos 2322 Rocket 2.9 03:59:32 43° N 03:59:32 43° N 04:03:43 10° NNE
USA 234 3.2 03:52:08 10° SE 03:58:38 64° SW 03:58:53 63° SW
Gbstr 26 Del rocket 4.5 03:59:16 34° SSE 03:59:59 36° SE 04:05:09 10° ENE
SL-16 R/B 3.4 04:06:02 28° NNW 04:06:02 28° NNW 04:09:31 10° NNE
Cosmos 44 Rocket 3.4 04:05:02 80° NE 04:05:04 80° NE 04:10:14 10° SE
Cosmos 1943 Rocket 2.8 04:06:17 25° NNW 04:09:21 54° NE 04:14:44 10° SE
Okean 1-7 3.5 04:13:10 51° NNE 04:13:10 51° NNE 04:16:25 10° NNE
H-2A R/B 4.2 04:08:25 10° NNE 04:11:15 43° NE 04:11:15 43° NE
ARGOS 3.0 04:09:21 10° NNE 04:14:48 83° WNW 04:16:17 50° SSW
PAYLOAD A 4.2 04:10:10 10° NNE 04:15:38 77° ESE 04:20:29 12° S
Cosmos 1908 Rocket 4.4 04:11:24 10° N 04:15:45 50° ENE 04:20:04 10° SSE
Cosmos 1140 Rocket 3.4 04:15:56 44° NNW 04:17:35 81° ENE 04:22:41 10° SSE
NOSS 2-1 (D) 4.3 04:19:05 35° ESE 04:19:05 35° ESE 04:21:25 10° ENE
Timation 2 Rocket 4.1 04:14:48 23° NNW 04:19:20 81° ENE 04:25:47 10° SE
CZ-2C R/B 2.3 04:15:08 10° NNE 04:20:08 84° WNW 04:21:33 49° SSW
Cosmos 1809 Rocket 4.3 04:18:01 10° S 04:24:08 86° WNW 04:30:15 10° N
ADEOS Rocket 3.5 04:19:00 10° N 04:25:04 46° WNW 04:25:40 45° W
NOSS 3-1 (C) 3.2 04:27:25 35° SSW 04:29:24 67° SE 04:35:06 10° NE
Iridium 4 Rocket 4.1 04:26:55 10° N 04:31:09 45° E 04:35:10 10° SSE
SJ 16-02 3.8 04:28:14 10° N 04:31:24 19° NE 04:34:32 10° E
Cosmos 2100 Rocket 3.8 04:25:23 10° NNW 04:31:32 79° W 04:37:41 10° S
Cosmos 2219 Rocket 2.4 04:36:49 47° W 04:37:36 50° NW 04:43:09 10° NNE
IRS-1D 4.2 04:35:16 10° NNE 04:40:10 53° E 04:44:58 10° S
SL-24 R/B - RUBIN 2 3.9 04:39:23 50° W 04:40:29 63° NW 04:45:21 10° NE
Cosmos 1707 Rocket 4.3 04:42:43 35° NNW 04:42:43 35° NNW 04:45:40 10° N
TIMED 4.3 04:40:17 44° NNW 04:41:36 86° WSW 04:45:51 10° SSE
COSMOS 2428 2.7 04:41:43 10° SSW 04:47:24 84° ESE 04:53:08 10° NNE
USA 59 Rocket -1.0 04:50:47 90° S 04:50:47 90° S 04:53:46 10° NE
SL-08 RB Rocket 3.7 04:47:17 10° N 04:51:44 53° WNW 04:53:29 33° SW
Cosmos 1459 Rocket 4.0 04:46:26 10° NNW 04:52:44 63° W 04:58:58 10° S
Cosmos 1864 Rocket 4.4 04:47:22 10° NNW 04:53:40 80° W 04:59:58 10° S
Cosmos 2322 3.6 04:50:01 15° SW 04:54:53 78° WNW 05:00:36 10° NNE
FengYun 1-2 T 4.2 04:51:09 10° NNE 04:56:45 90° WNW 05:02:21 10° SSW
COSMO-SKYMED 1 2.7 04:55:09 10° SSE 04:59:15 68° ENE 05:03:22 10° N
Cosmos 407 Rocket 3.3 04:54:47 12° NNW 04:59:32 86° WSW 05:04:38 10° SSE
Meteor 2-21 4.3 04:53:45 10° SSW 04:59:48 65° WNW 05:05:51 10° N
SKYMED 2 3.5 04:56:12 10° SSE 05:00:33 86° WSW 05:04:55 10° NNW
Cosmos 1727 Rocket 4.2 04:56:30 10° SW 05:02:25 47° WNW 05:08:27 10° N
Cosmos 1725 Rocket 3.9 04:56:52 10° NNW 05:03:13 75° W 05:09:29 10° S
Cosmos 2228 Rocket 3.6 05:03:28 36° WNW 05:03:33 36° WNW 05:07:39 10° N
USA 267 3.3 04:57:10 10° ENE 05:03:38 65° NNW 05:07:39 25° W
Cosmos 1980 4.3 05:01:42 10° S 05:07:13 59° ESE 05:12:48 10° NE
H-2A R/B 3.8 05:07:03 10° NNW 05:08:34 14° NNW 05:08:34 14° NNW
Cosmos 1802 Rocket 4.0 05:04:47 10° NNW 05:11:04 61° W 05:17:14 10° S
NOSS 3-1 (A) 3.5 05:08:56 10° SSW 05:13:34 61° SE 05:19:14 10° NE
Cosmos 2233 Rocket 4.0 05:08:05 10° N 05:14:26 87° W 05:20:44 10° S
Cosmos 2278 Rocket 2.3 05:11:40 14° NW 05:16:30 57° WSW 05:22:00 10° S
Cosmos 1328 3.8 05:13:05 10° SSW 05:16:35 46° WNW 05:20:08 10° N
Cosmos 1703 Rocket 3.5 05:13:42 10° SSW 05:17:59 59° WNW 05:22:21 10° N
Cosmos 2251 Rocket 3.7 05:12:59 10° NNW 05:18:22 80° ENE 05:23:44 10° SSE
CZ-3 R/B 4.3 05:17:39 10° SSW 05:20:21 11° S 05:22:31 10° S
NOSS 2-1 (E) 2.7 05:18:52 26° WSW 05:20:36 64° NW 05:23:39 10° NE
Cosmos 1939 Rocket 3.3 05:17:29 10° N 05:21:01 34° WNW 05:23:42 15° SW
Lacrosse 5 rocket 2.2 05:20:39 23° NW 05:21:42 27° N 05:24:37 10° NE
Cosmos 2173 Rocket 4.4 05:16:25 10° NNW 05:21:54 36° W 05:27:22 10° SSW
Meteor 2-16 Rocket 4.4 05:16:19 10° SSW 05:22:24 70° WNW 05:28:32 10° N
Cosmos 2333 Rocket 3.7 05:21:32 17° NW 05:22:58 18° NNW 05:26:54 10° N
Cosmos 2237 Rocket 2.5 05:17:50 10° SSW 05:23:28 72° ESE 05:29:07 10° NNE
USA-17 4.1 05:22:08 29° NW 05:23:33 74° SW 05:26:52 10° SE
SL-08 R/B 4.4 05:19:15 10° NNW 05:25:18 64° W 05:31:22 10° S
Cosmos 2292 Rocket 3.7 05:24:10 10° SSW 05:28:26 70° WNW 05:34:01 10° N
BlueWalker 3 3.3 05:27:40 19° WSW 05:28:29 20° SW 05:31:13 10° S
USA 276 4.1 05:29:39 11° SW 05:29:40 11° SW 05:30:38 10° SSW
COSMOS 2455 4.1 05:28:15 18° WNW 05:31:01 24° NNW 05:35:54 10° NNE
ACS3 Solar Sail 3.1 05:27:17 10° NNW 05:31:03 18° NW 05:32:02 17° WNW
Meteor 1-24 Rocket 3.9 05:27:35 10° SSW 05:33:12 51° WNW 05:38:37 10° N
Helios 1A Rocket 3.1 05:30:38 10° SSW 05:33:45 34° W 05:36:22 13° NW
Cosmos 2369 Rocket 3.5 05:28:54 10° NNW 05:34:13 39° NE 05:39:31 10° ESE
CZ-4 R/B 3.9 05:30:42 10° N 05:35:33 59° WNW 05:40:17 10° SSW
Cosmos 1782 Rocket 3.7 05:33:21 10° NNW 05:37:37 49° W 05:41:49 10° SSW
Cosmos 2360 Rocket 3.8 05:40:55 14° WNW 05:43:09 17° NNW 05:46:50 10° N
Cosmos 2322 Rocket 3.8 05:41:20 13° NW 05:43:33 16° NNW 05:47:02 10° N
Cosmos 2123 Rocket 4.3 05:38:04 10° SW 05:43:57 43° WNW 05:49:51 10° N
Meteor 2-5 Rocket 4.0 05:38:42 10° SW 05:44:24 48° WNW 05:50:03 10° N
NOAA 12 4.2 05:39:35 10° N 05:44:49 59° WNW 05:50:02 10° SSW
Cosmos 1420 Rocket 4.2 05:40:22 10° SSW 05:45:38 81° ESE 05:50:57 10° NNE
Gbstr 26 Del rocket 3.7 05:41:19 12° WSW 05:46:06 88° SSE 05:52:28 10° ENE
CENTAUR R/B 3.7 05:39:55 10° NW 05:47:41 59° NE 05:56:47 10° ESE
ARIANE 5 R/B 4.5 05:45:41 10° NNE 05:50:15 33° E 05:54:50 10° SSE
SL-16 R/B 4.1 05:48:14 10° NW 05:50:23 12° NNW 05:52:33 10° N
TiPS 4.3 05:48:39 10° SW 05:51:04 60° NW 05:53:21 10° NE
Cosmos 1943 Rocket 3.0 05:48:04 10° NW 05:52:47 30° WSW 05:57:28 10° SSW
Cosmos 1812 2.1 05:53:43 10° N 05:56:40 80° E 05:59:35 10° SSE
CZ-2C R/B 4.0 05:54:32 10° NNW 05:57:30 16° NW 06:00:29 10° W
Cosmos 1300 Rocket 4.4 05:54:14 10° NNW 05:57:59 28° W 06:01:39 10° SSW
SMAP 4.2 05:54:38 10° NNE 05:59:10 48° E 06:03:40 10° S
Cosmos 2346 Rocket 4.4 05:56:26 10° SSW 06:02:34 71° WNW 06:08:41 10° N
NOSS 2-1 (C) 3.9 06:00:51 11° W 06:03:23 24° NW 06:05:56 10° NNE
NOSS 2-1 (D) 4.0 06:04:54 10° W 06:07:25 22° NNW 06:09:51 10° NNE
SJ 16-02 1.3 06:05:41 10° NNW 06:09:56 62° WSW 06:14:10 10° S
Iridium 4 Rocket 4.3 06:07:23 10° NNW 06:10:33 20° WNW 06:13:34 10° SW
Aureole 3 Rocket 3.4 06:06:51 10° NNW 06:10:58 60° W 06:16:36 10° S
Okean 1 Rocket 4.1 06:07:02 10° N 06:11:16 49° ENE 06:15:28 10° SSE
Cosmos 2061 Rocket 4.5 06:07:57 10° NNW 06:13:36 38° W 06:19:13 10° SSW
CBERS-1 4.0 06:09:51 10° NNE 06:14:59 77° WNW 06:20:05 10° SSW
SWARM A 4.2 06:14:14 10° SSW 06:17:31 61° W 06:20:50 10° N
IRS-1D 4.4 06:14:55 10° N 06:19:01 26° WNW 06:23:04 10° WSW
Cosmos 1190 Rocket 4.5 06:14:25 10° NW 06:19:21 41° WSW 06:24:14 10° S
Cosmos 1378 Rocket 3.5 06:15:52 10° S 06:20:09 88° W 06:24:27 10° N
Cosmos 676 Rocket 4.1 06:15:15 10° NNW 06:20:28 63° WSW 06:25:35 10° S
NOSS 3-1 (C) 3.9 06:15:52 10° W 06:20:34 36° NNW 06:26:20 10° NE
SL-16 R/B 2.9 06:16:09 10° SSW 06:21:44 62° ESE 06:27:21 10° NE
In-Cosmos 22 Rocket 4.3 06:16:49 10° SSW 06:22:38 74° WNW 06:28:29 10° N
